Regional Weather Roundup
Issued by NWS

Home | Current Version | Previous Version | Text Only | Print | Product List | Glossary On
Versions: 1 2 3 4 5 6 7 8 9 10 11 12 13 14 15 16 17 18 19 20 21 22 23 24 25 26 27 28 29 30 31 32 33 34 35 36 37 38 39 40 41 42 43 44 45 46 47 48 49 50
000
ASUS44 KBMX 010210
RWRAL

ALABAMA REGIONAL WEATHER ROUNDUP
NATIONAL WEATHER SERVICE BIRMINGHAM AL
900 PM CDT THU JUL 31 2014

NOTE: "FAIR" INDICATES FEW OR NO CLOUDS BELOW 12,000 FEET
WITH NO SIGNIFICANT WEATHER AND/OR OBSTRUCTIONS TO VISIBILITY.

THE REMARK "TC" DENOTES TEMPERATURE IN DEGREES CELSIUS.

ALZ001>011-014-016>018-020-010300-
NORTH ALABAMA

CITY           SKY/WX    TMP DP  RH WIND       PRES   REMARKS
MUSCLE SHOALS  PTCLDY    73  63  70 CALM      30.06S
HUNTSVILLE     PTCLDY    73  62  68 SE5       30.05S
DECATUR        PTCLDY    68  65  90 NE5       30.05S
HALEYVILLE     FAIR      66  63  90 CALM      30.09S
GADSDEN        MOCLDY    73  66  78 CALM      30.05S
$$

ALZ012-013-022-023-030>036-040>044-010300-
WEST CENTRAL ALABAMA

CITY           SKY/WX    TMP DP  RH WIND       PRES   REMARKS
TUSCALOOSA     MOCLDY    72  61  68 CALM      30.03R
$$

ALZ015-024>027-033>036-040>044-010300-
CENTRAL ALABAMA

CITY           SKY/WX    TMP DP  RH WIND       PRES   REMARKS
BIRMINGHAM     MOCLDY    75  64  68 NE3       30.06S
MONTGOMERY     MOCLDY    79  65  62 NW5       30.00S
SHELBY CO ARPT CLOUDY    77  63  61 CALM      30.04R
MAXWELL AFB    MOCLDY    79  68  69 N6        30.00R
GREENVILLE     FAIR      78  65  63 N7        30.01R
$$

ALZ019-021-028-029-037-038-045>048-010300-
EAST CENTRAL ALABAMA

CITY           SKY/WX    TMP DP  RH WIND       PRES   REMARKS
ANNISTON       CLOUDY    75  66  73 E5        30.06R
ALEXANDER CITY CLOUDY    78  65  63 N3        30.04S
AUBURN         CLOUDY    75  64  69 N9        30.06R
$$

ALZ051>064-010300-
SOUTHWEST ALABAMA

CITY           SKY/WX    TMP DP  RH WIND       PRES   REMARKS
MOBILE         MOCLDY    76  66  71 CALM      30.01R
BROOKLEY FIELD PTCLDY    77  65  66 SW5       30.00S
EVERGREEN      MOCLDY    77  64  64 CALM      30.01R
$$

ALZ049-050-065>069-010300-
SOUTHEAST ALABAMA

CITY           SKY/WX    TMP DP  RH WIND       PRES   REMARKS
DOTHAN         MOCLDY    78  64  61 W3        30.03R
OZARK          NOT AVBL
TROY           MOCLDY    74  67  78 CALM      30.01R
EUFAULA        FAIR      78  66  66 CALM      29.99R
$$


USA.gov is the U.S. government's official web portal to all federal, state and local government web resources and services.